星链-6162 (STARLINK-6162 )

导读

STARLINK-6162是美国太空探索技术公司(SpaceX)星链互联网星座中的一颗卫星,于2023年6月23日发射入轨,是星链批量化生产组网的一员,旨在为全球覆盖提供高速低延迟互联网服务,尤其服务偏远地区和网络基础设施薄弱区域。

基本信息
目录编号:
57131
目录名称:
STARLINK-6162
国际标识:
2023-090AG
轨道中心:
EARTH
卫星名称:
星链-6162
卫星全名:
星链-6162 (STARLINK-6162 )
卫星状态:
在轨 (已飞行1170 天)
发射日期:
2023-06-23 UTC
国别 :
美国 (US)
星等 :
--
轨道信息
数据来源 国际轨道数据 AOE轨道数据
星历时间 2026-09-05T13:18:53+0800
13小时前
查看轨道信息
2026-09-01T02:00:00+0800
5天前
查看轨道信息
半长轴 6861.2km 6861.185km
偏心率 0.0002196 0.000253
轨道倾角 43.006° 43.005°
近地点辐角 288.323° 278.564°
升交点赤经 329.175° 354.428°
平近点角 71.739° 302.865°
近地点 481.556km 481.312km
远地点 484.57km 484.784km
周期 94.267分钟 94.267分钟
每日圈数 15.275756 15.275805
详细信息
固有亮度:
5
最大亮度:
2.4
卫星平台:
Starlink v1.5
覆盖范围:
全球
运营商:
太空探索技术公司
运营商所在国:
美国
制造商(研发单位):
太空探索技术公司
制造商所在国:
美国
使用方式:
暂无
卫星简介
星链(Starlink)计划是由太空探索技术公司(SpaceX)提出的一个巨型低轨卫星互联网星座项目,计划在2019年至2024年间在太空搭建由约1.2万颗卫星组成的“星链”网络,其中1584颗将部署在地球上空550千米处的近地轨道,并从2020年开始工作。该卫星仍在工作。
2D轨道图
3D轨道图
轨道高度分析图
轨道倾角分析图
轨道综合分析图
查看轨道综合分析图
交会数据列表
事件ID 空间交会对象 最接近时刻(TCA) 交会距离 交会风险概率(CRP) 交会风险指数(CRI) 操作
CDM_260908-033805-713106-358521
2026-09-08T
03:38:10+0000
0.582 km
远距离
7.207923E-5 中风险 0.72
CDM_260908-020405-713106-358521
2026-09-08T
02:04:01+0000
1.412 km
极远距离
3.967904E-6 低风险 0.47
CDM_260830-145001-957305-713122
2026-08-30T
14:50:03+0000
1.702 km
极远距离
2.998973E-6 低风险 0.45
CDM_260906-231604-431605-713125
OBJECT G (44316)
2026-09-06T
23:16:07+0000
1.657 km
极远距离
1.175111E-6 低风险 0.36
CDM_260908-051205-713106-358521
2026-09-08T
05:12:19+0000
2.302 km
极远距离
1.091382E-6 低风险 0.36